Temp
73 74 74 75 75 74 74 74 74 74 75 75 75 75 75 75 75 75 75 76 76 77 77 76 76 76 76 75 75 74 74 74 74 75 76 77 77 77 76 75 75 74 75
75 74 73 74 75 75 75 75 74 75 75 75 75 75 75 75 75 75 75 75 76 76 76 76 76 75 75 74 74 73 74 73 73 74 75 76 76 76 76 75 74 74 75
73 73 74 74 75 75 75 75 75 75 75 75 75 75 75 75 74 74 74 75 76 76 76 76 75 75 74 73 73 73 73 72 72 73 75 71 72 76 76 74 74 75 75
74 75 72 73 74 74 74 75 75 75 75 75 75 74 74 74 74 73 73 73 74 75 75 75 75 74 73 72 72 72 71 71 72 72 70 71 75 76 75 75 75 75 75
74 74 72 73 73 74 73 73 73 73 74 74 74 74 74 73 73 72 72 73 73 74 74 74 74 73 71 71 71 71 71 70 69 69 69 70 70 74 74 74 73 74 73
72 72 70 71 72 73 73 73 73 72 72 73 73 73 73 73 72 72 72 73 73 73 74 74 73 72 71 70 70 70 70 69 68 66 67 69 71 75 74 73 72 72 72
72 73 71 71 72 73 73 73 72 71 71 71 72 72 72 73 72 72 71 72 72 73 73 72 72 71 70 70 69 69 69 68 66 65 65 66 69 74 73 72 72 71 71
71 72 72 71 71 71 71 71 70 70 71 71 71 72 72 71 71 72 71 71 71 71 71 71 70 71 70 69 68 67 67 67 66 63 64 64 71 73 73 72 71 71 71
69 68 69 69 69 69 68 69 69 69 70 70 70 70 70 70 70 71 71 71 71 71 71 70 70 69 69 68 67 66 66 66 61 62 66 64 72 72 72 71 71 70 70
67 67 67 67 66 65 65 68 68 68 69 69 69 68 68 69 69 69 69 70 70 70 70 70 69 68 67 67 66 66 65 64 59 61 62 68 72 72 71 71 70 70 70
66 66 66 66 66 64 63 66 66 68 67 66 66 67 63 61 62 64 67 68 68 68 68 68 68 67 65 66 66 65 63 59 59 60 63 69 70 71 71 70 69 69 69
64 64 64 64 63 60 63 59 59 61 59 60 59 59 59 60 62 63 64 65 66 65 66 66 65 65 62 59 60 62 57 58 58 59 64 69 70 70 70 69 69 69 68
63 62 62 62 60 58 58 56 56 55 56 58 59 59 57 60 59 57 57 56 55 60 57 58 58 57 57 56 57 56 57 57 56 57 65 68 69 71 69 69 68 67 67
61 61 61 61 57 56 56 55 55 55 56 56 56 57 55 56 55 54 53 51 52 51 52 52 53 54 55 56 56 57 56 56 55 57 63 66 67 69 70 69 68 67 66
60 59 59 57 55 55 55 54 54 54 54 56 56 56 55 54 52 53 50 51 51 50 49 50 50 51 52 53 54 55 56 55 55 56 58 64 65 67 68 69 69 67 66
60 60 57 56 55 56 55 54 54 58 54 54 53 53 54 52 51 51 50 49 49 48 48 48 48 48 48 50 53 54 54 54 54 54 53 58 62 64 65 66 67 66 66
60 60 59 60 59 56 55 54 54 56 54 52 53 53 53 51 50 49 49 46 45 46 47 47 47 47 47 50 50 53 54 53 53 52 52 52 51 60 62 64 65 64 65
59 60 61 60 55 54 54 53 53 53 52 51 51 51 52 51 50 48 46 45 44 44 45 45 43 44 44 46 48 48 49 51 51 51 51 50 49 50 55 61 62 62 62
55 55 55 55 54 53 53 53 52 52 52 50 50 49 50 50 49 46 45 44 43 43 42 44 43 41 42 45 49 47 47 47 46 51 50 49 48 48 48 57 59 59 59
55 55 54 53 53 53 52 51 51 50 49 49 48 48 49 48 48 45 44 43 43 42 42 42 41 42 41 42 50 46 44 44 45 44 44 48 48 46 46 46 44 51 56
53 53 53 52 52 54 53 50 49 48 48 47 48 49 48 47 46 44 43 43 42 41 40 42 40 40 40 40 41 42 42 42 42 41 42 42 44 45 45 44 44 44 46
53 54 53 54 53 55 54 50 50 49 47 47 46 47 47 46 45 45 42 41 42 41 40 39 39 38 38 37 39 37 36 39 40 40 39 42 38 42 43 45 44 44 42
53 53 55 54 54 53 52 51 49 49 47 46 45 45 46 46 45 44 43 41 40 40 39 38 38 38 36 37 36 37 33 33 33 37 37 37 37 37 38 40 42 43 42
55 55 55 55 53 53 53 51 51 48 47 46 45 44 45 46 45 44 43 41 40 39 39 39 40 37 36 35 36 39 35 35 31 31 35 35 37 39 37 37 38 41 40
56 54 53 53 53 54 53 53 51 48 47 46 44 45 44 44 44 44 42 41 39 39 38 39 38 37 36 35 35 34 34 33 32 31 30 31 34 35 36 36 36 37 39
55 54 52 53 55 54 53 52 52 49 48 45 43 43 42 42 42 43 43 40 39 39 39 38 37 37 36 35 35 35 34 32 31 30 30 30 29 32 35 35 35 35 36
MSLP
1018.78 1018.64 1018.83 1018.83 1018.64 1018.66 1018.68 1018.75 1018.81 1018.84 1018.78 1018.81 1018.78 1018.76 1018.71 1018.90 1018.92 1018.90 1018.92 1018.94 1018.83 1018.85 1018.90 1018.97 1019.05 1019.06 1019.05 1018.91 1018.76 1018.66 1018.52 1018.48 1018.44 1018.33 1018.32 1018.18 1018.29 1018.43 1018.43 1018.38 1018.18 1018.16 1018.35
1018.46 1018.81 1018.84 1018.90 1018.86 1018.73 1018.82 1018.98 1018.98 1019.20 1019.26 1019.35 1019.30 1019.22 1019.19 1019.19 1019.23 1019.33 1019.37 1019.32 1019.25 1019.22 1019.20 1019.26 1019.39 1019.37 1019.40 1019.35 1019.14 1018.98 1018.86 1018.73 1018.63 1018.57 1018.71 1018.76 1018.79 1018.85 1018.82 1018.55 1018.48 1018.38 1018.47
1018.55 1018.93 1018.92 1018.89 1018.88 1018.87 1018.96 1019.17 1019.31 1019.39 1019.43 1019.57 1019.69 1019.66 1019.66 1019.71 1019.71 1019.71 1019.65 1019.60 1019.55 1019.53 1019.51 1019.58 1019.68 1019.71 1019.73 1019.65 1019.53 1019.25 1019.05 1018.98 1018.83 1018.87 1019.00 1019.20 1019.20 1019.02 1018.91 1018.96 1018.92 1018.82 1018.78
1018.59 1018.83 1019.11 1019.27 1019.34 1019.39 1019.41 1019.47 1019.48 1019.57 1019.73 1019.82 1019.89 1019.91 1019.97 1020.02 1020.10 1020.21 1020.21 1020.11 1020.01 1019.96 1019.91 1019.90 1019.96 1020.06 1020.06 1020.02 1019.90 1019.59 1019.36 1019.17 1019.04 1019.06 1019.41 1019.39 1019.29 1019.25 1019.21 1019.18 1019.21 1019.36 1019.41
1019.00 1019.30 1019.52 1019.68 1019.77 1019.83 1019.96 1020.03 1020.03 1020.02 1020.09 1020.08 1020.16 1020.31 1020.41 1020.45 1020.51 1020.60 1020.62 1020.60 1020.37 1020.36 1020.35 1020.32 1020.41 1020.38 1020.33 1020.20 1020.06 1019.84 1019.75 1019.54 1019.47 1019.61 1019.73 1019.71 1019.65 1019.55 1019.45 1019.53 1019.70 1019.66 1019.71
1019.46 1019.74 1019.83 1019.92 1019.98 1020.22 1020.27 1020.52 1020.27 1020.57 1020.64 1020.66 1020.60 1020.70 1020.77 1020.92 1020.96 1020.97 1021.09 1020.91 1020.87 1020.81 1020.80 1020.85 1020.88 1020.74 1020.60 1020.41 1020.30 1020.26 1020.14 1020.01 1020.04 1020.20 1020.18 1020.09 1020.02 1019.90 1019.97 1020.16 1020.23 1020.05 1020.00
1019.84 1020.10 1020.25 1020.49 1020.56 1020.45 1020.58 1020.99 1021.24 1021.21 1021.28 1021.24 1021.15 1021.23 1021.24 1021.27 1021.33 1021.33 1021.37 1021.35 1021.33 1021.29 1021.20 1021.24 1021.27 1021.12 1020.90 1020.78 1020.67 1020.66 1020.73 1020.65 1020.69 1020.72 1020.74 1020.62 1020.42 1020.32 1020.35 1020.53 1020.68 1020.62 1020.40
1020.28 1020.50 1020.68 1020.97 1021.26 1021.52 1021.36 1021.51 1021.79 1021.63 1021.87 1021.83 1021.65 1021.65 1021.62 1021.69 1021.78 1021.83 1021.83 1021.60 1021.68 1021.65 1021.58 1021.53 1021.54 1021.42 1021.27 1021.27 1021.07 1021.22 1021.24 1021.18 1021.22 1021.24 1021.26 1021.11 1020.82 1020.73 1020.69 1020.66 1020.87 1020.95 1020.87
1020.78 1020.86 1021.18 1021.43 1021.62 1021.81 1021.90 1022.06 1022.20 1022.22 1022.32 1022.34 1022.26 1022.10 1022.12 1022.08 1022.08 1022.19 1022.15 1021.88 1022.10 1022.07 1021.97 1021.97 1021.82 1021.78 1021.66 1021.70 1021.67 1021.78 1021.89 1021.92 1021.94 1021.94 1021.77 1021.64 1021.35 1021.30 1021.31 1021.14 1021.27 1021.38 1021.24
1021.42 1021.51 1021.76 1022.07 1022.19 1022.30 1022.27 1022.43 1022.62 1022.59 1022.85 1022.87 1022.96 1022.81 1022.57 1022.72 1022.68 1022.71 1022.07 1022.35 1022.67 1022.52 1022.52 1022.49 1022.36 1022.23 1022.15 1022.22 1022.24 1022.51 1022.43 1022.46 1022.52 1022.45 1022.36 1022.15 1021.97 1021.84 1021.86 1021.77 1021.72 1021.65 1021.43
1022.05 1022.07 1022.22 1022.38 1022.66 1022.78 1022.95 1022.89 1022.93 1023.11 1023.17 1023.28 1023.22 1023.58 1023.31 1023.30 1023.37 1023.24 1022.82 1023.16 1022.92 1023.00 1023.17 1022.98 1022.95 1022.76 1022.74 1022.76 1022.87 1022.90 1023.07 1023.17 1023.12 1023.10 1022.90 1022.82 1022.63 1022.55 1022.41 1022.40 1022.36 1022.25 1022.13
1022.18 1022.60 1022.71 1022.89 1023.10 1023.39 1023.48 1023.68 1023.71 1023.56 1023.61 1023.45 1023.77 1024.01 1023.88 1023.68 1023.62 1023.49 1023.59 1023.72 1023.66 1023.76 1023.72 1023.48 1023.49 1023.44 1023.51 1023.52 1023.52 1023.52 1023.57 1023.67 1023.64 1023.62 1023.39 1023.21 1023.09 1023.11 1023.07 1023.08 1022.92 1022.85 1022.74
1022.44 1022.96 1023.23 1023.40 1023.71 1023.97 1024.10 1024.30 1024.38 1024.32 1024.07 1023.91 1024.01 1024.25 1024.33 1024.16 1024.18 1024.18 1024.34 1024.44 1024.44 1024.44 1024.42 1024.23 1024.16 1024.12 1024.04 1024.14 1024.24 1024.30 1024.24 1024.14 1024.14 1024.14 1024.03 1023.78 1023.59 1023.56 1023.67 1023.65 1023.61 1023.58 1023.66
1022.80 1023.26 1023.45 1023.70 1023.90 1024.22 1024.52 1024.66 1024.81 1024.78 1024.58 1024.37 1024.59 1024.62 1024.68 1024.67 1024.80 1024.88 1025.01 1025.13 1025.27 1025.23 1025.07 1024.98 1024.95 1024.80 1024.60 1024.52 1024.58 1024.77 1024.82 1024.82 1024.92 1024.85 1024.71 1024.37 1024.31 1024.31 1024.07 1024.20 1024.23 1024.24 1024.35
1023.09 1023.57 1023.83 1024.12 1024.30 1024.47 1024.79 1024.98 1025.10 1025.07 1025.08 1024.99 1024.92 1025.03 1025.01 1025.05 1025.29 1025.38 1025.70 1025.70 1025.78 1025.61 1025.64 1025.61 1025.47 1025.40 1025.21 1025.16 1025.12 1025.21 1025.39 1025.51 1025.61 1025.72 1025.59 1025.18 1025.02 1024.94 1024.87 1024.68 1024.55 1024.63 1024.78
1023.15 1023.75 1024.22 1024.39 1024.59 1024.79 1024.99 1025.06 1025.15 1025.32 1025.39 1025.22 1025.36 1025.46 1025.38 1025.53 1025.85 1025.86 1026.14 1026.29 1026.42 1026.29 1026.15 1026.07 1026.08 1026.04 1026.00 1025.74 1025.72 1025.76 1026.04 1026.28 1026.35 1026.41 1026.46 1026.19 1025.99 1025.92 1025.81 1025.57 1025.26 1025.32 1025.29
1023.25 1023.78 1024.13 1024.55 1024.83 1025.13 1025.40 1025.61 1025.22 1025.41 1026.07 1026.11 1025.56 1025.77 1025.72 1026.07 1026.38 1026.60 1026.78 1027.11 1027.26 1026.93 1026.58 1026.40 1026.40 1026.46 1026.34 1026.28 1026.45 1026.51 1026.70 1026.96 1027.11 1027.15 1027.13 1027.10 1027.09 1026.84 1026.64 1026.20 1026.01 1026.09 1025.95
1023.42 1023.90 1024.37 1024.48 1025.06 1025.30 1025.58 1026.05 1025.82 1025.65 1025.78 1026.40 1026.44 1026.31 1026.45 1026.47 1026.63 1027.04 1027.51 1027.73 1027.62 1027.38 1027.36 1027.25 1027.19 1027.19 1027.33 1027.29 1027.37 1027.68 1027.74 1027.73 1027.91 1028.05 1028.03 1027.97 1027.93 1027.88 1027.55 1027.06 1026.94 1026.98 1026.85
1023.63 1024.05 1024.42 1024.95 1025.27 1025.38 1025.42 1026.19 1026.41 1026.05 1026.27 1026.61 1026.91 1027.05 1027.15 1027.12 1027.27 1027.60 1027.90 1028.04 1027.93 1027.97 1028.03 1027.83 1027.94 1028.02 1028.07 1028.12 1028.29 1028.44 1028.64 1028.69 1028.79 1028.63 1028.61 1028.68 1028.67 1028.54 1028.36 1028.04 1027.79 1027.76 1027.74
1023.77 1024.13 1024.49 1025.04 1025.36 1025.56 1025.84 1026.42 1026.82 1026.66 1026.78 1026.78 1027.12 1027.24 1027.38 1027.69 1027.81 1027.92 1028.40 1028.43 1028.19 1028.30 1028.53 1028.47 1028.68 1028.77 1029.05 1029.03 1029.18 1029.52 1029.73 1029.72 1029.57 1029.61 1029.61 1029.39 1029.36 1029.25 1029.10 1028.98 1028.88 1028.66 1028.47
1024.19 1024.37 1024.53 1024.79 1025.27 1025.74 1026.15 1026.77 1027.27 1027.59 1027.43 1027.41 1027.24 1027.57 1027.71 1027.99 1028.24 1028.22 1028.56 1028.72 1028.64 1028.75 1029.17 1029.10 1029.24 1029.51 1029.88 1029.86 1029.81 1030.38 1030.59 1030.50 1030.42 1030.52 1030.40 1030.35 1030.10 1029.97 1029.76 1029.62 1029.64 1029.67 1029.59
1023.87 1024.10 1024.49 1024.71 1025.11 1025.40 1025.66 1026.35 1026.80 1027.43 1027.80 1027.60 1027.63 1027.97 1028.12 1028.12 1028.58 1028.58 1028.73 1028.98 1029.14 1029.24 1029.49 1029.71 1029.66 1029.98 1030.37 1030.13 1030.22 1030.65 1031.18 1031.28 1031.15 1031.14 1031.02 1030.79 1031.03 1030.62 1030.38 1030.27 1030.18 1030.20 1030.19
1023.54 1023.86 1024.14 1024.53 1024.82 1024.99 1025.41 1025.99 1026.91 1027.52 1027.89 1027.96 1028.06 1028.32 1028.49 1028.48 1028.80 1028.88 1028.84 1029.18 1029.35 1029.50 1029.98 1030.17 1030.20 1030.17 1030.56 1030.58 1030.28 1030.36 1031.24 1031.38 1031.46 1031.49 1031.61 1031.55 1031.42 1031.34 1031.14 1030.90 1030.80 1030.70 1030.57
1022.97 1023.57 1024.02 1024.39 1024.67 1024.99 1025.25 1025.72 1026.44 1026.95 1027.65 1027.87 1028.00 1028.31 1028.86 1028.61 1028.97 1028.96 1029.08 1029.48 1029.59 1029.99 1030.18 1030.14 1030.21 1030.42 1030.61 1031.02 1030.88 1030.80 1030.91 1031.15 1031.64 1031.94 1031.78 1031.73 1031.55 1031.71 1031.66 1031.48 1031.31 1031.14 1030.95
1022.46 1023.08 1023.49 1023.93 1024.32 1024.63 1025.06 1025.54 1026.11 1026.90 1027.36 1027.60 1027.93 1028.38 1028.89 1029.01 1029.12 1029.05 1029.36 1029.77 1030.02 1030.27 1030.51 1030.48 1030.54 1030.76 1031.02 1031.31 1031.41 1031.53 1031.56 1031.67 1031.74 1032.06 1032.34 1032.26 1031.96 1031.93 1031.97 1031.93 1031.74 1031.56 1031.35
1021.94 1022.56 1023.16 1023.69 1023.91 1024.22 1024.61 1025.35 1025.84 1026.28 1027.07 1027.78 1027.99 1028.31 1029.04 1029.24 1029.21 1029.45 1029.63 1029.86 1030.25 1030.44 1030.65 1030.90 1031.10 1031.12 1031.29 1031.42 1031.55 1031.57 1031.75 1032.00 1032.26 1032.42 1032.68 1032.73 1032.73 1032.13 1032.02 1032.02 1031.93 1031.80 1031.65
Wind_Speed
1 6 9 9 12 13 14 14 15 16 17 17 18 18 18 18 18 17 17 16 16 17 17 17 17 17 17 16 15 14 14 12 10 9 11 14 12 12 12 12 12 10 13
7 7 10 11 12 15 15 14 15 15 16 17 17 16 17 17 17 17 16 16 16 17 16 17 17 17 17 16 15 14 12 10 8 7 10 11 12 11 11 11 10 10 12
10 7 8 11 13 15 15 15 15 15 16 17 17 16 18 18 18 18 18 16 15 16 16 17 17 17 16 16 14 13 12 10 6 4 10 4 5 10 10 10 9 10 10
11 10 6 11 12 14 15 14 15 17 18 17 17 17 17 17 17 17 17 16 16 16 16 16 17 17 16 14 13 12 14 17 14 13 5 5 6 9 8 10 10 8 8
9 9 8 11 12 14 14 15 16 16 16 16 15 16 16 17 17 17 16 16 17 17 17 17 18 18 17 14 12 13 15 18 19 14 10 9 6 8 14 13 10 9 7
11 10 10 12 13 14 14 13 16 15 14 14 16 17 17 17 17 17 16 17 18 18 18 18 20 20 17 15 14 12 15 15 13 8 8 10 7 15 16 15 15 10 7
11 12 10 12 13 13 15 15 15 14 13 14 16 17 18 19 19 19 17 18 18 19 17 16 17 17 17 17 16 14 15 16 9 8 7 7 8 14 12 14 14 15 15
12 10 9 13 14 13 15 15 12 14 13 13 16 17 20 19 17 18 17 18 18 18 19 18 16 15 16 17 17 17 15 15 10 8 7 6 14 15 15 15 13 13 13
9 10 9 10 13 17 14 14 14 13 12 13 14 16 16 16 16 17 17 20 18 17 17 16 15 15 17 18 17 17 15 17 8 6 7 4 15 16 14 16 16 14 13
8 8 9 8 8 7 7 13 12 11 10 12 14 14 14 16 16 16 18 19 18 19 17 16 15 15 17 18 17 16 15 14 7 6 5 8 18 20 21 21 20 18 15
8 7 7 7 7 6 6 7 10 13 11 12 12 12 9 5 6 10 19 18 20 20 18 16 15 15 15 15 16 16 13 4 6 5 4 17 18 20 21 22 22 21 21
8 7 6 6 6 6 5 6 5 5 4 6 6 5 4 5 8 11 16 19 20 17 18 18 19 16 11 5 5 10 4 5 5 4 6 17 18 19 21 21 20 22 23
7 7 6 7 6 6 5 4 3 2 2 4 6 4 5 6 6 6 6 6 6 12 6 9 8 6 8 5 4 4 5 5 4 4 9 16 19 19 20 20 21 22 22
9 7 6 5 6 6 4 3 3 3 3 4 5 6 4 4 6 6 5 5 5 4 6 6 5 6 9 8 6 6 6 5 4 5 9 17 18 20 19 20 20 21 22
9 6 6 6 5 5 5 3 4 4 4 4 5 5 4 5 6 6 5 5 5 5 5 5 5 6 7 6 6 6 6 7 8 5 6 19 18 20 20 19 18 18 21
9 7 5 6 5 5 4 4 4 5 4 5 4 5 7 6 5 6 5 6 6 4 4 5 5 5 5 5 8 8 7 7 8 8 6 10 20 20 18 16 16 20 21
7 8 7 6 5 6 6 3 4 5 5 4 5 7 8 6 6 6 6 6 4 4 6 5 6 6 6 6 9 9 8 8 9 9 7 6 7 18 18 16 17 18 19
8 8 7 6 7 6 6 3 3 4 5 4 5 5 7 7 7 7 5 4 4 5 5 6 5 5 5 6 7 7 6 7 8 8 7 6 5 6 11 17 18 18 19
7 8 8 7 7 6 7 4 3 7 6 5 5 5 6 7 7 6 5 4 5 5 5 4 7 5 5 5 8 7 6 7 6 7 10 10 10 8 5 14 18 18 18
7 7 7 6 7 7 5 5 4 4 4 4 4 5 7 5 6 6 5 5 5 5 5 5 6 6 4 4 9 8 6 5 6 7 7 7 8 8 7 7 6 9 18
6 7 7 9 7 8 5 4 3 2 2 3 5 6 6 6 5 6 5 5 5 6 5 5 3 6 7 4 3 5 6 6 7 5 5 6 8 7 7 6 5 4 6
9 9 8 9 10 8 7 3 4 3 2 3 3 5 5 7 5 6 6 5 5 5 6 5 4 2 3 4 3 2 2 2 4 5 5 5 7 5 7 8 7 7 5
11 11 11 9 11 8 7 6 4 4 2 3 3 3 2 6 5 5 6 5 5 5 4 4 4 4 3 4 6 4 2 3 0 1 4 4 6 5 5 5 6 6 6
13 10 10 9 8 7 8 7 8 4 4 3 3 3 3 5 5 5 6 6 6 4 5 3 3 3 3 2 2 4 5 2 3 2 2 3 4 6 5 4 5 6 6
13 12 9 8 7 7 8 8 7 5 2 3 3 6 3 3 5 6 6 5 6 4 3 4 4 5 3 3 2 1 3 4 4 3 1 4 4 3 3 3 4 4 5
11 11 8 10 10 8 9 8 10 10 7 5 4 5 4 2 3 4 5 5 4 5 4 4 4 5 4 4 3 3 2 2 1 3 2 1 2 3 1 2 4 4 4
Wind_Direction
110 108 98 94 92 86 82 77 75 75 75 75 73 72 75 73 70 68 65 63 65 64 60 54 52 53 54 53 52 47 45 41 40 51 56 66 78 80 84 88 87 86 86
125 101 99 102 101 99 95 90 86 81 77 76 74 74 73 72 70 67 66 65 64 66 64 59 53 50 48 46 43 37 31 25 20 43 67 68 75 75 76 83 86 91 90
106 99 107 112 111 108 102 96 94 91 88 83 74 70 71 70 67 63 57 56 60 61 60 57 56 55 52 49 42 33 28 26 18 57 89 83 75 76 80 76 74 83 91
117 121 107 104 103 101 99 98 96 95 93 88 84 79 78 74 67 62 61 58 51 49 51 53 51 47 47 48 46 43 53 56 63 78 54 42 66 62 65 83 70 85 85
109 101 91 91 93 95 94 97 97 98 98 95 89 82 74 72 70 66 61 56 59 54 51 51 49 46 44 42 48 52 61 62 61 59 47 37 37 50 58 47 42 56 57
102 101 88 97 104 104 106 105 103 93 89 87 92 87 81 74 71 68 62 62 60 59 57 57 53 46 39 41 47 56 62 61 57 50 46 39 35 57 57 46 43 41 41
116 113 97 96 106 104 101 93 88 88 88 91 90 85 82 80 76 72 66 63 58 58 54 58 53 46 43 44 51 73 58 58 53 47 41 34 38 47 67 65 44 38 47
112 106 97 86 73 63 82 86 82 83 82 85 88 87 85 77 71 69 67 62 56 54 55 57 57 52 46 51 71 65 59 58 48 44 35 30 46 43 41 56 57 48 37
98 89 85 85 87 80 74 82 81 80 82 79 84 87 82 78 73 71 68 64 59 55 53 53 54 52 49 60 82 70 64 59 47 35 39 26 57 56 48 46 48 41 33
94 93 89 87 78 76 87 84 80 83 79 74 76 73 68 67 69 66 62 59 54 50 49 48 48 49 55 71 78 76 68 56 39 32 27 50 57 59 53 50 51 48 45
105 93 95 93 84 85 66 83 78 83 82 75 69 71 61 60 51 50 62 60 56 53 52 54 48 51 54 69 80 77 66 44 49 32 44 64 63 59 61 56 53 52 45
114 99 82 78 74 63 64 53 50 76 66 80 74 61 48 63 75 67 61 57 55 53 51 50 49 48 46 48 63 74 67 59 49 39 57 61 63 60 61 55 53 52 46
105 91 80 88 79 69 67 60 49 42 65 71 73 60 52 64 52 51 49 41 35 41 36 39 35 34 41 44 56 52 58 59 53 42 54 64 65 63 66 62 57 58 49
104 107 101 100 104 93 86 90 80 74 46 75 62 66 67 66 59 61 54 41 42 16 39 36 34 31 38 45 59 65 56 54 43 49 48 65 65 61 60 66 55 64 60
117 113 110 111 112 109 100 87 72 70 58 63 66 59 73 75 71 63 50 51 42 30 36 41 39 34 33 32 45 70 67 56 49 49 47 65 60 62 57 52 54 64 68
119 117 122 124 122 121 108 108 93 79 70 76 72 71 62 64 68 71 59 47 39 29 34 49 48 37 33 25 57 66 71 57 55 54 48 55 59 58 57 56 55 57 63
132 131 143 132 111 113 110 96 101 92 66 55 76 62 71 73 77 71 60 46 28 23 41 41 37 43 34 42 61 67 68 61 61 54 49 45 41 52 53 55 57 54 51
141 150 139 141 137 124 109 95 90 98 93 63 58 65 66 77 78 70 68 54 36 44 43 42 26 36 44 58 68 55 47 51 55 53 50 41 39 38 37 62 66 58 52
144 147 146 141 151 142 120 106 79 85 80 76 63 67 62 68 73 81 70 56 49 56 48 40 40 45 45 62 76 67 55 59 50 55 51 44 39 35 26 52 66 61 54
150 149 144 157 156 147 110 95 61 69 77 84 87 79 82 73 77 84 68 57 51 58 48 46 57 45 53 53 82 64 47 42 52 51 45 41 38 32 29 38 30 46 53
158 155 164 158 157 142 131 120 96 93 87 69 81 84 86 86 86 92 82 68 48 58 59 45 63 56 33 5 84 52 45 39 48 36 40 43 32 29 37 30 42 45 35
170 173 168 167 159 160 151 141 133 154 78 97 89 81 96 100 101 93 94 81 63 60 50 54 55 89 74 13 123 97 146 341 41 30 28 44 34 25 32 39 39 41 33
177 180 176 175 175 165 143 116 84 77 68 74 65 84 87 104 99 105 96 93 85 79 61 57 62 76 121 28 48 138 119 198 333 2 36 36 41 32 25 27 34 34 28
187 182 178 182 177 170 155 136 159 155 157 187 151 133 139 116 122 113 100 99 94 91 86 65 61 78 97 70 23 44 56 125 139 351 354 20 37 38 25 21 30 33 18
180 183 184 178 181 174 168 169 160 152 153 140 126 135 145 144 143 113 114 111 103 99 104 104 76 64 55 86 64 67 58 59 57 102 320 333 5 18 17 29 28 29 23
182 182 182 181 196 187 178 177 176 166 159 151 159 151 176 166 122 136 135 118 114 116 122 116 93 89 92 83 66 58 90 103 55 88 84 316 301 299 322 33 34 23 37